| time (UTC) | temp F | wind direction | speed MPH | gust MPH | rain 1hr in | rain 24hr in | rain mn in | humidity % | barometer mb |
| 20260506211556 | 69 | 255 | 5.0 | 10.0 | 0.00 | 0.00 | 0.00 | 76 | 1008.3 |
| 20260506211049 | 69 | 240 | 4.0 | 11.0 | 0.00 | 0.00 | 0.00 | 76 | 1008.5 |
| 20260506210550 | 70 | 274 | 4.0 | 11.0 | 0.00 | 0.00 | 0.00 | 76 | 1008.4 |
| 20260506210058 | 70 | 254 | 5.0 | 10.0 | 0.00 | 0.00 | 0.00 | 76 | 1008.2 |
| 20260506205549 | 70 | 298 | 4.0 | 9.0 | 0.00 | 0.00 | 0.00 | 76 | 1008.3 |
| 20260506205047 | 70 | 270 | 5.0 | 13.0 | 0.00 | 0.00 | 0.00 | 75 | 1008.2 |
| 20260506204615 | 70 | 292 | 4.0 | 13.0 | 0.00 | 0.00 | 0.00 | 75 | 1008.1 |
| 20260506204048 | 69 | 242 | 5.0 | 12.0 | 0.00 | 0.00 | 0.00 | 75 | 1008.1 |
| 20260506203545 | 69 | 237 | 4.0 | 15.0 | 0.00 | 0.00 | 0.00 | 75 | 1008.2 |
| 20260506203056 | 69 | 246 | 5.0 | 15.0 | 0.00 | 0.00 | 0.00 | 75 | 1008.2 |
| 20260506202548 | 69 | 290 | 2.0 | 16.0 | 0.00 | 0.00 | 0.00 | 76 | 1008.1 |
| 20260506202048 | 69 | 231 | 5.0 | 16.0 | 0.00 | 0.00 | 0.00 | 76 | 1008.1 |
| 20260506201556 | 69 | 257 | 7.0 | 16.0 | 0.00 | 0.00 | 0.00 | 76 | 1008.0 |
| 20260506201048 | 68 | 209 | 1.0 | 12.0 | 0.00 | 0.00 | 0.00 | 78 | 1008.1 |
| 20260506200548 | 68 | 263 | 5.0 | 12.0 | 0.00 | 0.00 | 0.00 | 78 | 1008.0 |
| 20260506200058 | 67 | 225 | 5.0 | 12.0 | 0.00 | 0.00 | 0.00 | 78 | 1008.2 |
| 20260506195545 | 67 | 180 | 4.0 | 16.0 | 0.00 | 0.00 | 0.00 | 78 | 1008.1 |
| 20260506195050 | 67 | 245 | 7.0 | 16.0 | 0.00 | 0.00 | 0.00 | 78 | 1008.5 |
| 20260506194607 | 67 | 233 | 5.0 | 15.0 | 0.00 | 0.00 | 0.00 | 78 | 1008.6 |
| 20260506194050 | 67 | 230 | 5.0 | 15.0 | 0.00 | 0.00 | 0.00 | 78 | 1008.5 |
| 20260506193548 | 67 | 295 | 6.0 | 14.0 | 0.00 | 0.00 | 0.00 | 78 | 1008.6 |
| 20260506193112 | 67 | 215 | 4.0 | 16.0 | 0.00 | 0.00 | 0.00 | 78 | 1008.7 |
| 20260506192550 | 67 | 297 | 6.0 | 16.0 | 0.00 | 0.00 | 0.00 | 78 | 1008.6 |
| 20260506192049 | 67 | 278 | 8.0 | 16.0 | 0.00 | 0.00 | 0.00 | 78 | 1008.9 |
| 20260506191604 | 67 | 279 | 5.0 | 12.0 | 0.00 | 0.00 | 0.00 | 78 | 1008.9 |
| 20260506191047 | 67 | 225 | 7.0 | 13.0 | 0.00 | 0.00 | 0.00 | 78 | 1008.8 |
| 20260506190547 | 66 | 230 | 6.0 | 14.0 | 0.00 | 0.00 | 0.00 | 79 | 1008.9 |
| 20260506190111 | 66 | 202 | 6.0 | 21.0 | 0.00 | 0.00 | 0.00 | 78 | 1008.9 |
| 20260506185549 | 66 | 211 | 5.0 | 21.0 | 0.00 | 0.00 | 0.00 | 79 | 1009.0 |
| 20260506185049 | 66 | 271 | 6.0 | 20.0 | 0.00 | 0.00 | 0.00 | 78 | 1008.9 |
| 20260506184556 | 66 | 210 | 4.0 | 17.0 | 0.00 | 0.00 | 0.00 | 79 | 1009.1 |
| 20260506184048 | 66 | 253 | 6.0 | 17.0 | 0.00 | 0.00 | 0.00 | 79 | 1009.0 |
| 20260506183549 | 66 | 247 | 7.0 | 17.0 | 0.00 | 0.00 | 0.00 | 79 | 1009.0 |
| 20260506183100 | 66 | 267 | 6.0 | 15.0 | 0.00 | 0.00 | 0.00 | 79 | 1009.2 |
| 20260506182547 | 66 | 197 | 8.0 | 16.0 | 0.00 | 0.00 | 0.00 | 80 | 1009.2 |
| 20260506182048 | 66 | 241 | 4.0 | 16.0 | 0.00 | 0.00 | 0.00 | 80 | 1009.1 |
| 20260506181606 | 66 | 300 | 5.0 | 13.0 | 0.00 | 0.00 | 0.00 | 80 | 1009.2 |
| 20260506181049 | 66 | 231 | 6.0 | 21.0 | 0.00 | 0.00 | 0.00 | 80 | 1009.2 |
| 20260506180549 | 66 | 192 | 4.0 | 21.0 | 0.00 | 0.00 | 0.00 | 80 | 1009.3 |
| 20260506180052 | 66 | 178 | 7.0 | 21.0 | 0.00 | 0.00 | 0.00 | 80 | 1009.3 |
| 20260506175549 | 66 | 229 | 3.0 | 17.0 | 0.00 | 0.00 | 0.00 | 81 | 1009.3 |
| 20260506175051 | 65 | 214 | 5.0 | 17.0 | 0.00 | 0.00 | 0.00 | 81 | 1009.2 |
| 20260506174556 | 65 | 211 | 4.0 | 9.0 | 0.00 | 0.00 | 0.00 | 82 | 1009.2 |
| 20260506174050 | 65 | 250 | 2.0 | 10.0 | 0.00 | 0.00 | 0.00 | 82 | 1009.3 |
| 20260506173548 | 65 | 302 | 2.0 | 10.0 | 0.00 | 0.00 | 0.00 | 82 | 1009.4 |
| 20260506173100 | 65 | 275 | 3.0 | 9.0 | 0.00 | 0.00 | 0.00 | 82 | 1009.4 |
| 20260506172545 | 65 | 272 | 4.0 | 9.0 | 0.00 | 0.00 | 0.00 | 82 | 1009.6 |
| 20260506172048 | 65 | 220 | 3.0 | 13.0 | 0.00 | 0.00 | 0.00 | 82 | 1009.6 |
| 20260506171557 | 65 | 224 | 3.0 | 14.0 | 0.00 | 0.00 | 0.00 | 82 | 1009.5 |
| 20260506171047 | 65 | 174 | 6.0 | 14.0 | 0.00 | 0.00 | 0.00 | 82 | 1009.6 |
| 20260506170549 | 65 | 227 | 6.0 | 16.0 | 0.00 | 0.00 | 0.00 | 82 | 1009.6 |
| 20260506170052 | 65 | 236 | 4.0 | 16.0 | 0.00 | 0.00 | 0.00 | 82 | 1009.8 |
| 20260506165548 | 65 | 217 | 6.0 | 16.0 | 0.00 | 0.00 | 0.00 | 82 | 1009.7 |
| 20260506165046 | 65 | 221 | 3.0 | 14.0 | 0.00 | 0.00 | 0.00 | 83 | 1009.9 |
| 20260506164558 | 65 | 123 | 3.0 | 14.0 | 0.00 | 0.00 | 0.00 | 83 | 1009.7 |
| 20260506164048 | 65 | 233 | 5.0 | 13.0 | 0.00 | 0.00 | 0.00 | 82 | 1009.8 |
| 20260506163548 | 65 | 229 | 4.0 | 13.0 | 0.00 | 0.00 | 0.00 | 82 | 1009.9 |
| 20260506163052 | 65 | 240 | 5.0 | 13.0 | 0.00 | 0.00 | 0.00 | 82 | 1010.1 |
| 20260506162546 | 65 | 235 | 5.0 | 13.0 | 0.00 | 0.00 | 0.00 | 82 | 1009.8 |
| 20260506162047 | 65 | 225 | 3.0 | 12.0 | 0.00 | 0.00 | 0.00 | 82 | 1009.8 |
| 20260506161553 | 65 | 242 | 5.0 | 14.0 | 0.00 | 0.00 | 0.00 | 81 | 1009.9 |
| 20260506161050 | 65 | 238 | 4.0 | 14.0 | 0.00 | 0.00 | 0.00 | 81 | 1010.1 |
| 20260506160545 | 65 | 138 | 4.0 | 14.0 | 0.00 | 0.00 | 0.00 | 80 | 1010.2 |
| 20260506160053 | 65 | 246 | 5.0 | 12.0 | 0.00 | 0.00 | 0.00 | 79 | 1010.5 |
| 20260506155546 | 66 | 205 | 4.0 | 12.0 | 0.00 | 0.00 | 0.00 | 78 | 1010.6 |
| 20260506155048 | 66 | 245 | 3.0 | 12.0 | 0.00 | 0.00 | 0.00 | 77 | 1010.7 |
| 20260506154612 | 66 | 215 | 5.0 | 16.0 | 0.00 | 0.00 | 0.00 | 76 | 1010.8 |
| 20260506154048 | 67 | 173 | 3.0 | 16.0 | 0.00 | 0.00 | 0.00 | 74 | 1010.7 |
| 20260506153549 | 67 | 257 | 6.0 | 16.0 | 0.00 | 0.00 | 0.00 | 73 | 1010.9 |
| 20260506153055 | 67 | 201 | 4.0 | 16.0 | 0.00 | 0.00 | 0.00 | 72 | 1010.7 |
| 20260506152549 | 67 | 207 | 6.0 | 15.0 | 0.00 | 0.00 | 0.00 | 71 | 1010.8 |
| 20260506152049 | 67 | 238 | 5.0 | 13.0 | 0.00 | 0.00 | 0.00 | 71 | 1010.7 |
| 20260506151555 | 67 | 223 | 4.0 | 13.0 | 0.00 | 0.00 | 0.00 | 71 | 1010.7 |
| 20260506151044 | 67 | 212 | 4.0 | 13.0 | 0.00 | 0.00 | 0.00 | 71 | 1010.6 |
| 20260506150548 | 68 | 222 | 5.0 | 10.0 | 0.00 | 0.00 | 0.00 | 70 | 1010.6 |
| 20260506150056 | 68 | 230 | 4.0 | 16.0 | 0.00 | 0.00 | 0.00 | 69 | 1010.7 |
| 20260506145547 | 68 | 208 | 6.0 | 16.0 | 0.00 | 0.00 | 0.00 | 69 | 1010.7 |
| 20260506145050 | 68 | 196 | 5.0 | 15.0 | 0.00 | 0.00 | 0.00 | 67 | 1010.6 |
| 20260506144602 | 68 | 275 | 5.0 | 15.0 | 0.00 | 0.00 | 0.00 | 66 | 1010.6 |
| 20260506144048 | 69 | 276 | 5.0 | 14.0 | 0.00 | 0.00 | 0.00 | 66 | 1010.7 |
| 20260506143548 | 69 | 278 | 5.0 | 16.0 | 0.00 | 0.00 | 0.00 | 65 | 1010.6 |
| 20260506143055 | 69 | 0 | 5.0 | 18.0 | 0.00 | 0.00 | 0.00 | 66 | 1010.7 |
| 20260506142551 | 69 | 258 | 7.0 | 18.0 | 0.00 | 0.00 | 0.00 | 65 | 1010.7 |
| 20260506142050 | 69 | 308 | 6.0 | 13.0 | 0.00 | 0.00 | 0.00 | 65 | 1010.7 |
| 20260506141550 | 69 | 242 | 4.0 | 15.0 | 0.00 | 0.00 | 0.00 | 65 | 1010.8 |
| 20260506141052 | 69 | 238 | 4.0 | 15.0 | 0.00 | 0.00 | 0.00 | 64 | 1010.7 |
| 20260506140550 | 69 | 213 | 6.0 | 15.0 | 0.00 | 0.00 | 0.00 | 64 | 1010.8 |
| 20260506140100 | 69 | 211 | 4.0 | 16.0 | 0.00 | 0.00 | 0.00 | 64 | 1010.7 |
| 20260506135547 | 69 | 286 | 5.0 | 16.0 | 0.00 | 0.00 | 0.00 | 64 | 1010.6 |
| 20260506135049 | 70 | 311 | 6.0 | 15.0 | 0.00 | 0.00 | 0.00 | 63 | 1010.5 |
| 20260506134558 | 70 | 222 | 6.0 | 15.0 | 0.00 | 0.00 | 0.00 | 63 | 1010.6 |
| 20260506134050 | 69 | 230 | 5.0 | 15.0 | 0.00 | 0.00 | 0.00 | 65 | 1010.3 |
| 20260506133551 | 69 | 286 | 6.0 | 14.0 | 0.00 | 0.00 | 0.00 | 65 | 1010.4 |
| 20260506133057 | 69 | 207 | 3.0 | 14.0 | 0.00 | 0.00 | 0.00 | 66 | 1010.4 |
| 20260506132550 | 68 | 219 | 6.0 | 14.0 | 0.00 | 0.00 | 0.00 | 66 | 1010.5 |
| 20260506132050 | 68 | 269 | 6.0 | 14.0 | 0.00 | 0.00 | 0.00 | 67 | 1010.6 |
| 20260506131552 | 68 | 179 | 4.0 | 13.0 | 0.00 | 0.00 | 0.00 | 67 | 1010.6 |
| 20260506131050 | 67 | 290 | 3.0 | 13.0 | 0.00 | 0.00 | 0.00 | 67 | 1010.6 |
| 20260506130550 | 67 | 223 | 4.0 | 11.0 | 0.00 | 0.00 | 0.00 | 67 | 1010.6 |
| 20260506130059 | 67 | 192 | 5.0 | 13.0 | 0.00 | 0.00 | 0.00 | 68 | 1010.7 |
| 20260506125550 | 67 | 205 | 3.0 | 15.0 | 0.00 | 0.00 | 0.00 | 68 | 1010.9 |
| 20260506125051 | 67 | 287 | 7.0 | 15.0 | 0.00 | 0.00 | 0.00 | 68 | 1010.9 |
| 20260506124557 | 67 | 292 | 3.0 | 16.0 | 0.00 | 0.00 | 0.00 | 68 | 1010.9 |
| 20260506124048 | 67 | 205 | 5.0 | 16.0 | 0.00 | 0.00 | 0.00 | 68 | 1011.0 |
| 20260506123552 | 68 | 284 | 5.0 | 14.0 | 0.00 | 0.00 | 0.00 | 68 | 1010.9 |
| 20260506123054 | 67 | 227 | 6.0 | 14.0 | 0.00 | 0.00 | 0.00 | 69 | 1010.9 |
| 20260506122550 | 67 | 229 | 4.0 | 17.0 | 0.00 | 0.00 | 0.00 | 70 | 1010.8 |
| 20260506122049 | 67 | 213 | 7.0 | 17.0 | 0.00 | 0.00 | 0.00 | 70 | 1010.8 |
| 20260506121553 | 67 | 179 | 7.0 | 17.0 | 0.00 | 0.00 | 0.00 | 70 | 1010.8 |
| 20260506121050 | 67 | 301 | 5.0 | 17.0 | 0.00 | 0.00 | 0.00 | 71 | 1010.7 |
| 20260506120549 | 67 | 186 | 4.0 | 12.0 | 0.00 | 0.00 | 0.00 | 72 | 1010.8 |
| 20260506120052 | 67 | 232 | 5.0 | 12.0 | 0.00 | 0.00 | 0.00 | 73 | 1010.7 |
| 20260506115550 | 67 | 227 | 4.0 | 10.0 | 0.00 | 0.00 | 0.00 | 73 | 1010.6 |
| 20260506115048 | 66 | 211 | 4.0 | 10.0 | 0.00 | 0.00 | 0.00 | 74 | 1010.8 |
| 20260506114558 | 66 | 188 | 3.0 | 10.0 | 0.00 | 0.00 | 0.00 | 75 | 1010.6 |
| 20260506114048 | 66 | 220 | 3.0 | 10.0 | 0.00 | 0.00 | 0.00 | 75 | 1010.6 |
| 20260506113550 | 66 | 219 | 4.0 | 11.0 | 0.00 | 0.00 | 0.00 | 75 | 1010.5 |
| 20260506113053 | 66 | 207 | 3.0 | 12.0 | 0.00 | 0.00 | 0.00 | 75 | 1010.6 |
| 20260506112549 | 66 | 169 | 5.0 | 12.0 | 0.00 | 0.00 | 0.00 | 75 | 1010.6 |
| 20260506112049 | 66 | 229 | 3.0 | 11.0 | 0.00 | 0.00 | 0.00 | 76 | 1010.6 |
| 20260506111602 | 65 | 181 | 3.0 | 11.0 | 0.00 | 0.00 | 0.00 | 76 | 1010.5 |
| 20260506111050 | 65 | 221 | 3.0 | 11.0 | 0.00 | 0.00 | 0.00 | 76 | 1010.6 |
| 20260506110550 | 65 | 215 | 2.0 | 10.0 | 0.00 | 0.00 | 0.00 | 76 | 1010.4 |
| 20260506110057 | 65 | 186 | 4.0 | 10.0 | 0.00 | 0.00 | 0.00 | 76 | 1010.3 |
| 20260506105552 | 65 | 217 | 3.0 | 10.0 | 0.00 | 0.00 | 0.00 | 77 | 1010.3 |
| 20260506105050 | 65 | 196 | 2.0 | 9.0 | 0.00 | 0.00 | 0.00 | 78 | 1010.4 |
| 20260506104558 | 65 | 187 | 4.0 | 9.0 | 0.00 | 0.00 | 0.00 | 78 | 1010.6 |
| 20260506104050 | 64 | 224 | 2.0 | 8.0 | 0.00 | 0.00 | 0.00 | 79 | 1010.6 |
| 20260506103550 | 64 | 171 | 3.0 | 8.0 | 0.00 | 0.00 | 0.00 | 79 | 1010.5 |
| 20260506103059 | 64 | 157 | 2.0 | 8.0 | 0.00 | 0.00 | 0.00 | 80 | 1010.6 |
| 20260506102550 | 64 | 198 | 2.0 | 8.0 | 0.00 | 0.00 | 0.00 | 81 | 1010.7 |
| 20260506102050 | 63 | 193 | 2.0 | 9.0 | 0.00 | 0.00 | 0.00 | 81 | 1010.5 |
| 20260506101553 | 63 | 211 | 3.0 | 9.0 | 0.00 | 0.00 | 0.00 | 81 | 1010.7 |
| 20260506101050 | 63 | 158 | 2.0 | 9.0 | 0.00 | 0.00 | 0.00 | 81 | 1010.7 |
| 20260506100551 | 63 | 210 | 0.0 | 7.0 | 0.00 | 0.00 | 0.00 | 81 | 1010.6 |
| 20260506100100 | 63 | 171 | 2.0 | 8.0 | 0.00 | 0.00 | 0.00 | 81 | 1010.6 |
| 20260506095550 | 63 | 185 | 1.0 | 10.0 | 0.00 | 0.00 | 0.00 | 81 | 1010.6 |
| 20260506095051 | 63 | 173 | 3.0 | 10.0 | 0.00 | 0.00 | 0.00 | 80 | 1010.5 |
| 20260506094555 | 63 | 190 | 0.0 | 9.0 | 0.00 | 0.00 | 0.00 | 80 | 1010.6 |
| 20260506094049 | 64 | 230 | 2.0 | 9.0 | 0.00 | 0.00 | 0.00 | 80 | 1010.8 |
| 20260506093547 | 63 | 194 | 1.0 | 9.0 | 0.00 | 0.00 | 0.00 | 80 | 1010.7 |
| 20260506093054 | 64 | 189 | 2.0 | 9.0 | 0.00 | 0.00 | 0.00 | 80 | 1010.5 |
| 20260506092550 | 64 | 215 | 0.0 | 7.0 | 0.00 | 0.00 | 0.00 | 79 | 1010.6 |
| 20260506092049 | 64 | 176 | 2.0 | 7.0 | 0.00 | 0.00 | 0.00 | 79 | 1010.6 |
| 20260506091601 | 64 | 211 | 2.0 | 7.0 | 0.00 | 0.00 | 0.00 | 79 | 1010.6 |
| 20260506091051 | 64 | 164 | 2.0 | 6.0 | 0.00 | 0.00 | 0.00 | 79 | 1010.4 |
| 20260506090551 | 64 | 180 | 1.0 | 6.0 | 0.00 | 0.00 | 0.00 | 79 | 1010.6 |
| 20260506090054 | 64 | 180 | 0.0 | 5.0 | 0.00 | 0.00 | 0.00 | 79 | 1010.7 |
| 20260506085550 | 64 | 194 | 1.0 | 6.0 | 0.00 | 0.00 | 0.00 | 79 | 1010.7 |
| 20260506085047 | 64 | 204 | 2.0 | 7.0 | 0.00 | 0.00 | 0.00 | 79 | 1010.6 |
| 20260506084556 | 64 | 159 | 1.0 | 7.0 | 0.00 | 0.00 | 0.00 | 78 | 1010.6 |
| 20260506084051 | 65 | 140 | 2.0 | 7.0 | 0.00 | 0.00 | 0.00 | 78 | 1010.7 |
| 20260506083550 | 65 | 194 | 2.0 | 7.0 | 0.00 | 0.00 | 0.00 | 78 | 1010.6 |
| 20260506083058 | 65 | 164 | 2.0 | 9.0 | 0.00 | 0.00 | 0.00 | 78 | 1010.6 |
| 20260506082550 | 65 | 177 | 1.0 | 9.0 | 0.00 | 0.00 | 0.00 | 78 | 1010.6 |
| 20260506082049 | 65 | 0 | 1.0 | 7.0 | 0.00 | 0.00 | 0.00 | 78 | 1010.7 |
| 20260506081559 | 65 | 200 | 2.0 | 7.0 | 0.00 | 0.00 | 0.00 | 78 | 1010.8 |
| 20260506081049 | 65 | 161 | 2.0 | 6.0 | 0.00 | 0.00 | 0.00 | 78 | 1010.9 |
| 20260506080550 | 65 | 188 | 2.0 | 6.0 | 0.00 | 0.00 | 0.00 | 77 | 1010.9 |
| 20260506073058 | 66 | 170 | 1.0 | 7.0 | 0.00 | 0.00 | 0.00 | 76 | 1010.9 |
| 20260506072550 | 66 | 139 | 2.0 | 7.0 | 0.00 | 0.00 | 0.00 | 75 | 1010.9 |
| 20260506072051 | 66 | 0 | 2.0 | 7.0 | 0.00 | 0.00 | 0.00 | 75 | 1010.9 |
| 20260506071551 | 66 | 191 | 1.0 | 9.0 | 0.00 | 0.00 | 0.00 | 75 | 1010.9 |
| 20260506071049 | 67 | 0 | 4.0 | 9.0 | 0.00 | 0.00 | 0.00 | 75 | 1011.0 |
| 20260506070550 | 67 | 252 | 1.0 | 8.0 | 0.00 | 0.00 | 0.00 | 74 | 1010.9 |
| 20260506062050 | 68 | 229 | 4.0 | 12.0 | 0.00 | 0.00 | 0.00 | 72 | 1011.2 |
| 20260506061557 | 68 | 182 | 5.0 | 11.0 | 0.00 | 0.00 | 0.00 | 72 | 1011.2 |
| 20260506061053 | 68 | 0 | 3.0 | 11.0 | 0.00 | 0.00 | 0.00 | 72 | 1011.0 |
| 20260506060550 | 68 | 182 | 2.0 | 11.0 | 0.00 | 0.00 | 0.00 | 72 | 1011.0 |
| 20260506051049 | 68 | 178 | 3.0 | 15.0 | 0.00 | 0.00 | 0.00 | 71 | 1011.3 |
| 20260506050547 | 68 | 200 | 3.0 | 15.0 | 0.00 | 0.00 | 0.00 | 70 | 1011.3 |
| 20260506045049 | 68 | 191 | 4.0 | 11.0 | 0.00 | 0.00 | 0.00 | 70 | 1011.3 |
| 20260506044638 | 68 | 157 | 4.0 | 13.0 | 0.00 | 0.00 | 0.00 | 69 | 1011.3 |
| 20260506044049 | 68 | 134 | 4.0 | 13.0 | 0.00 | 0.00 | 0.00 | 69 | 1011.3 |
| 20260506043547 | 68 | 161 | 4.0 | 11.0 | 0.00 | 0.00 | 0.00 | 69 | 1011.4 |
| 20260506043059 | 68 | 236 | 5.0 | 13.0 | 0.00 | 0.00 | 0.00 | 69 | 1011.3 |
| 20260506042550 | 68 | 167 | 2.0 | 13.0 | 0.00 | 0.00 | 0.00 | 69 | 1011.5 |
| 20260506042051 | 68 | 200 | 3.0 | 13.0 | 0.00 | 0.00 | 0.00 | 69 | 1011.4 |
| 20260506041559 | 68 | 205 | 5.0 | 12.0 | 0.00 | 0.00 | 0.00 | 69 | 1011.4 |
| 20260506041049 | 68 | 159 | 4.0 | 11.0 | 0.00 | 0.00 | 0.00 | 69 | 1011.4 |
| 20260506040546 | 68 | 238 | 2.0 | 11.0 | 0.00 | 0.00 | 0.00 | 68 | 1011.4 |
| 20260506040056 | 68 | 190 | 4.0 | 10.0 | 0.00 | 0.00 | 0.00 | 68 | 1011.4 |
| 20260506035550 | 68 | 133 | 3.0 | 13.0 | 0.00 | 0.00 | 0.00 | 68 | 1011.4 |
| 20260506035050 | 68 | 196 | 3.0 | 13.0 | 0.00 | 0.00 | 0.00 | 68 | 1011.2 |
| 20260506034555 | 68 | 182 | 3.0 | 9.0 | 0.00 | 0.00 | 0.00 | 68 | 1011.4 |
| 20260506034052 | 68 | 198 | 3.0 | 9.0 | 0.00 | 0.00 | 0.00 | 68 | 1011.4 |
| 20260506033550 | 68 | 189 | 2.0 | 11.0 | 0.00 | 0.00 | 0.00 | 68 | 1011.2 |
| 20260506033054 | 68 | 186 | 2.0 | 11.0 | 0.00 | 0.00 | 0.00 | 68 | 1011.2 |
| 20260506032547 | 68 | 190 | 3.0 | 11.0 | 0.00 | 0.00 | 0.00 | 67 | 1011.2 |
| 20260506032047 | 68 | 153 | 2.0 | 11.0 | 0.00 | 0.00 | 0.00 | 67 | 1011.2 |
| 20260506031555 | 68 | 209 | 4.0 | 11.0 | 0.00 | 0.00 | 0.00 | 67 | 1011.2 |
| 20260506031051 | 68 | 212 | 3.0 | 9.0 | 0.00 | 0.00 | 0.00 | 67 | 1011.2 |
| 20260506030552 | 68 | 171 | 3.0 | 13.0 | 0.00 | 0.00 | 0.00 | 66 | 1011.4 |
| 20260506030057 | 68 | 193 | 3.0 | 13.0 | 0.00 | 0.00 | 0.00 | 66 | 1011.3 |
| 20260506025551 | 68 | 181 | 4.0 | 11.0 | 0.00 | 0.00 | 0.00 | 66 | 1011.4 |
| 20260506025050 | 68 | 174 | 3.0 | 10.0 | 0.00 | 0.00 | 0.00 | 66 | 1011.4 |
| 20260506024559 | 68 | 163 | 3.0 | 10.0 | 0.00 | 0.00 | 0.00 | 65 | 1011.3 |
| 20260506024050 | 68 | 159 | 4.0 | 9.0 | 0.00 | 0.00 | 0.00 | 65 | 1011.5 |
| 20260506023550 | 69 | 181 | 3.0 | 14.0 | 0.00 | 0.00 | 0.00 | 65 | 1011.5 |
| 20260506023101 | 69 | 192 | 4.0 | 14.0 | 0.00 | 0.00 | 0.00 | 65 | 1011.5 |
| 20260506022549 | 69 | 165 | 3.0 | 7.0 | 0.00 | 0.00 | 0.00 | 64 | 1011.5 |
| 20260506022049 | 69 | 189 | 2.0 | 7.0 | 0.00 | 0.00 | 0.00 | 64 | 1011.3 |
| 20260506021606 | 69 | 171 | 2.0 | 10.0 | 0.00 | 0.00 | 0.00 | 63 | 1011.4 |
| 20260506021050 | 69 | 156 | 3.0 | 10.0 | 0.00 | 0.00 | 0.00 | 63 | 1011.3 |
| 20260506020550 | 69 | 168 | 3.0 | 10.0 | 0.00 | 0.00 | 0.00 | 62 | 1011.3 |
| 20260506020056 | 70 | 173 | 3.0 | 9.0 | 0.00 | 0.00 | 0.00 | 61 | 1011.2 |
| 20260506015550 | 70 | 0 | 3.0 | 9.0 | 0.00 | 0.00 | 0.00 | 61 | 1011.1 |
| 20260506015050 | 70 | 218 | 2.0 | 8.0 | 0.00 | 0.00 | 0.00 | 60 | 1011.2 |
| 20260506014554 | 71 | 185 | 4.0 | 10.0 | 0.00 | 0.00 | 0.00 | 59 | 1011.2 |
| 20260506014049 | 71 | 167 | 2.0 | 10.0 | 0.00 | 0.00 | 0.00 | 57 | 1011.2 |
| 20260506013549 | 72 | 248 | 3.0 | 10.0 | 0.00 | 0.00 | 0.00 | 56 | 1011.0 |
| 20260506013104 | 72 | 128 | 4.0 | 10.0 | 0.00 | 0.00 | 0.00 | 55 | 1010.9 |
| 20260506012550 | 73 | 185 | 3.0 | 11.0 | 0.00 | 0.00 | 0.00 | 53 | 1010.8 |
| 20260506012050 | 73 | 171 | 4.0 | 11.0 | 0.00 | 0.00 | 0.00 | 52 | 1010.8 |
| 20260506011557 | 73 | 212 | 3.0 | 10.0 | 0.00 | 0.00 | 0.00 | 52 | 1010.7 |
| 20260506011051 | 73 | 184 | 3.0 | 10.0 | 0.00 | 0.00 | 0.00 | 52 | 1010.8 |
| 20260506010550 | 73 | 177 | 4.0 | 10.0 | 0.00 | 0.00 | 0.00 | 51 | 1010.7 |
| 20260506010112 | 73 | 178 | 3.0 | 10.0 | 0.00 | 0.00 | 0.00 | 51 | 1010.5 |
| 20260506005547 | 73 | 243 | 4.0 | 10.0 | 0.00 | 0.00 | 0.00 | 50 | 1010.7 |
| 20260506005050 | 73 | 236 | 3.0 | 10.0 | 0.00 | 0.00 | 0.00 | 50 | 1010.6 |
| 20260506004554 | 74 | 165 | 3.0 | 10.0 | 0.00 | 0.00 | 0.00 | 50 | 1010.6 |
| 20260506004048 | 74 | 181 | 3.0 | 9.0 | 0.00 | 0.00 | 0.00 | 50 | 1010.4 |
| 20260506003550 | 74 | 216 | 3.0 | 13.0 | 0.00 | 0.00 | 0.00 | 50 | 1010.5 |
| 20260506003057 | 74 | 238 | 4.0 | 13.0 | 0.00 | 0.00 | 0.00 | 49 | 1010.6 |
| 20260506002549 | 74 | 143 | 4.0 | 14.0 | 0.00 | 0.00 | 0.00 | 48 | 1010.4 |
| 20260506002049 | 74 | 207 | 4.0 | 14.0 | 0.00 | 0.00 | 0.00 | 48 | 1010.4 |
| 20260506001551 | 74 | 168 | 5.0 | 11.0 | 0.00 | 0.00 | 0.00 | 48 | 1010.1 |
| 20260506001049 | 74 | 205 | 4.0 | 10.0 | 0.00 | 0.00 | 0.00 | 48 | 1010.1 |
| 20260506000551 | 74 | 225 | 4.0 | 12.0 | 0.00 | 0.00 | 0.00 | 47 | 1010.1 |
| 20260506000056 | 74 | 191 | 4.0 | 12.0 | 0.00 | 0.00 | 0.00 | 48 | 1010.0 |
| 20260505235549 | 75 | 192 | 2.0 | 12.0 | 0.00 | 0.00 | 0.00 | 47 | 1010.0 |
| 20260505235052 | 75 | 207 | 5.0 | 19.0 | 0.00 | 0.00 | 0.00 | 46 | 1010.1 |
| 20260505234607 | 76 | 190 | 5.0 | 20.0 | 0.00 | 0.00 | 0.00 | 45 | 1010.0 |
| 20260505234048 | 76 | 233 | 7.0 | 20.0 | 0.00 | 0.00 | 0.00 | 45 | 1010.0 |
| 20260505233549 | 76 | 191 | 4.0 | 14.0 | 0.00 | 0.00 | 0.00 | 45 | 1010.0 |
| 20260505233056 | 76 | 194 | 5.0 | 13.0 | 0.00 | 0.00 | 0.00 | 45 | 1010.0 |
| 20260505232550 | 76 | 191 | 4.0 | 15.0 | 0.00 | 0.00 | 0.00 | 44 | 1009.9 |
| 20260505232050 | 77 | 194 | 5.0 | 15.0 | 0.00 | 0.00 | 0.00 | 43 | 1010.0 |
| 20260505231556 | 77 | 164 | 4.0 | 15.0 | 0.00 | 0.00 | 0.00 | 43 | 1010.0 |
| 20260505231047 | 77 | 222 | 4.0 | 13.0 | 0.00 | 0.00 | 0.00 | 44 | 1009.9 |
| 20260505230549 | 77 | 203 | 4.0 | 13.0 | 0.00 | 0.00 | 0.00 | 44 | 1009.9 |
| 20260505230053 | 77 | 254 | 4.0 | 16.0 | 0.00 | 0.00 | 0.00 | 44 | 1009.7 |
| 20260505225547 | 78 | 196 | 5.0 | 16.0 | 0.00 | 0.00 | 0.00 | 44 | 1009.9 |
| 20260505225048 | 78 | 205 | 5.0 | 13.0 | 0.00 | 0.00 | 0.00 | 43 | 1009.7 |
| 20260505224558 | 79 | 154 | 5.0 | 15.0 | 0.00 | 0.00 | 0.00 | 42 | 1009.8 |
| 20260505224049 | 79 | 190 | 6.0 | 15.0 | 0.00 | 0.00 | 0.00 | 41 | 1009.8 |
| 20260505223549 | 80 | 205 | 6.0 | 13.0 | 0.00 | 0.00 | 0.00 | 40 | 1009.8 |
| 20260505223059 | 80 | 168 | 3.0 | 19.0 | 0.00 | 0.00 | 0.00 | 41 | 1009.9 |
| 20260505222548 | 80 | 231 | 6.0 | 19.0 | 0.00 | 0.00 | 0.00 | 40 | 1009.8 |
| 20260505222050 | 80 | 189 | 5.0 | 16.0 | 0.00 | 0.00 | 0.00 | 40 | 1009.9 |
| 20260505221551 | 81 | 175 | 2.0 | 12.0 | 0.00 | 0.00 | 0.00 | 40 | 1009.9 |
| 20260505221052 | 80 | 217 | 4.0 | 12.0 | 0.00 | 0.00 | 0.00 | 41 | 1009.9 |
| 20260505220549 | 80 | 227 | 3.0 | 15.0 | 0.00 | 0.00 | 0.00 | 40 | 1009.9 |
| 20260505220052 | 80 | 193 | 6.0 | 15.0 | 0.00 | 0.00 | 0.00 | 41 | 1009.7 |
| 20260505215549 | 80 | 186 | 4.0 | 16.0 | 0.00 | 0.00 | 0.00 | 41 | 1009.8 |
| 20260505215052 | 80 | 246 | 7.0 | 21.0 | 0.00 | 0.00 | 0.00 | 40 | 1009.8 |
| 20260505214613 | 81 | 217 | 7.0 | 21.0 | 0.00 | 0.00 | 0.00 | 39 | 1009.6 |
| 20260505214047 | 81 | 200 | 5.0 | 19.0 | 0.00 | 0.00 | 0.00 | 40 | 1009.6 |
| 20260505213549 | 82 | 233 | 7.0 | 18.0 | 0.00 | 0.00 | 0.00 | 38 | 1009.6 |
| 20260505213059 | 82 | 238 | 4.0 | 15.0 | 0.00 | 0.00 | 0.00 | 36 | 1009.6 |
| 20260505212549 | 82 | 218 | 3.0 | 14.0 | 0.00 | 0.00 | 0.00 | 37 | 1009.5 |
| 20260505212049 | 82 | 266 | 6.0 | 17.0 | 0.00 | 0.00 | 0.00 | 36 | 1009.5 |